Regional Weather Roundup
Issued by NWS

Home | Current Version | Previous Version | Text Only | Print | Product List | Glossary On
Versions: 1 2 3 4 5 6 7 8 9 10 11 12 13 14 15 16 17 18 19 20 21 22 23 24 25 26 27 28 29 30 31 32 33 34 35 36 37 38 39 40 41 42 43 44 45 46 47 48 49 50
000
ASUS43 KDTX 051910
RWRMI
MICHIGAN HOURLY REGIONAL WEATHER ROUNDUP
NATIONAL WEATHER SERVICE DETROIT/PONTIAC MI
300 PM EDT THU MAY 05 2016

NOTE: "FAIR" INDICATES FEW OR NO CLOUDS BELOW 12,000 FEET WITH NO
SIGNIFICANT WEATHER AND/OR OBSTRUCTION TO VISIBILITY.

MIZ047>049-052>055-059>063-066>070-074>076-081>083-052000-
SOUTHEAST LOWER MICHIGAN

CITY           SKY/WX    TMP DP  RH WIND       PRES   REMARKS
ADRIAN         PTSUNNY   66  44  45 NE16G26   29.86S
ALMA           MOSUNNY   64  46  51 NW6G21    29.92S
ANN ARBOR      PTSUNNY   64  41  42 N17G24    29.86S
BAD AXE        SUNNY     57  46  66 N12       29.92S
CARO           SUNNY     61  48  61 N10G17    29.91S
DETROIT CITY   PTSUNNY   65  40  39 N17G24    29.85S
DETROIT        PTSUNNY   64  38  38 N17G29    29.85S
FLINT          SUNNY     64  46  52 N12       29.90F
GROSSE ILE     MOSUNNY   64  43  45 N14G20    29.83S
HILLSDALE      PTSUNNY   63  35  35 N12G21    29.88S
HOWELL         SUNNY     61  46  57 N8        29.89F

CITY           SKY/WX    TMP DP  RH WIND       PRES   REMARKS
JACKSON        MOSUNNY   64  41  42 N13G20    29.89S
LAMBERTVILLE   PTSUNNY   66  39  36 NE9G20    29.85S
LANSING        PTSUNNY   63  44  50 N12G21    29.92S
LAPEER         CLOUDY    62  42  46 N13G20    29.88S
MASON          MOSUNNY   62  44  51 N12G18    29.90S
MONROE         MOSUNNY   66  39  37 NE14G24   29.83F
MT. CLEMENS    SUNNY     65  38  37 N18G26    29.84S
PONTIAC        MOSUNNY   62  42  47 N15G22    29.86S
PORT HOPE        N/A     48  44  86 N13       29.92F
PORT HURON     SUNNY     63  39  42 N14G22    29.86S
TRI CITIES     SUNNY     65  47  52 N9        29.92F
MIDLAND        FAIR      66  43  43 N6G16     29.90F
TROY           MOSUNNY   67  39  36 NE13G23   29.87S
SAGINAW HB     SUNNY     61  50  67 N10       29.92S
$$
MIZ043>046-050>051-056>058-064>065-071>073-077>080-052000-
SOUTHWEST LOWER MICHIGAN

CITY           SKY/WX    TMP DP  RH WIND       PRES   REMARKS
BATTLE CREEK   PTSUNNY   64  42  44 N14G22    29.91S
BENTON HARBOR  SUNNY     49  42  77 NW9       29.98S
BIG RAPIDS     SUNNY     63  38  39 N7        29.93S
COLDWATER      MOSUNNY   64  44  48 N16       29.90S
FREMONT        FAIR      65  38  38 N7        29.94S
HOLLAND        SUNNY    N/A N/A N/A W12       29.97S
GRAND RAPIDS   MOSUNNY   66  42  41 NE9       29.93S
IONIA          FAIR      65  40  40 N6G20     29.91S
KALAMAZOO      MOSUNNY   64  45  49 N13G22    29.92F
LUDINGTON      SUNNY     54  42  65 NW9       29.99S
MARSHALL       PTSUNNY   63  44  48 N12       29.90S
MOUNT PLEASANT SUNNY     65  44  46 NE9       29.92S
MUSKEGON       MOSUNNY   62  45  53 W14       29.96S
SOUTH HAVEN    SUNNY     51  44  78 N9        29.97S
$$
MIZ016>042-052000-
NORTHERN LOWER MICHIGAN

CITY           SKY/WX    TMP DP  RH WIND       PRES   REMARKS
ALPENA         SUNNY     64  44  48 N12       29.94S
BEAVER ISLAND  SUNNY     55  39  54 SW8       29.98F
BELLAIRE       SUNNY     57  41  55 W8        29.97S
CADILLAC       MOSUNNY   63  43  46 N6        29.93F
CHARLEVOIX     SUNNY     49  39  69 W10       30.02S
FRANKFORT      SUNNY     54  42  62 NW8       29.99F
GAYLORD        MOSUNNY   61  41  47 W8        29.94F
GRAYLING       MOSUNNY   63  42  45 NW9       29.94F
HARBOR SPRINGS SUNNY     45  40  83 SW9       29.97F
HOUGHTON LAKE  MOSUNNY   63  43  48 W7        29.93F
MANISTEE       SUNNY     48  37  66 NW13G18   30.00S
OSCODA         SUNNY     58  42  54 NE12      29.92S
PELLSTON       SUNNY     60  42  51 NW9       29.96S
ROGERS CITY    SUNNY     54  43  66 N9        29.96F
TRAVERSE CITY  MOSUNNY   53  41  63 N9        29.97F
$$
MIZ007>008-015-052000-
EASTERN UPPER MICHIGAN

CITY           SKY/WX    TMP DP  RH WIND       PRES   REMARKS
KINROSS          N/A     55  39  54 N8        29.95S
MACKINAC ISLAN SUNNY     53  40  63 W9        29.96S
NEWBERRY       SUNNY     59  37  44 W6        29.95F
S. S. MARIE    SUNNY     55  39  54 NW9       29.95F
MUNISING         N/A     46  37  71 N8        29.98F
$$
MIZ004>006-011>014-085-052000-
CENTRAL UPPER MICHIGAN

CITY           SKY/WX    TMP DP  RH WIND       PRES   REMARKS
MANISTIQUE     SUNNY     53  38  57 S9        29.97F
ESCANABA       SUNNY     55  36  47 S10       29.97F
MENOMINEE      SUNNY     55  37  50 NE9       29.99F
SAWYER-GWINN   SUNNY     61  34  36 SE8       29.97F
$$
MIZ001>003-009>011-084-052000-
WESTERN UPPER MICHIGAN

CITY           SKY/WX    TMP DP  RH WIND       PRES   REMARKS
IRON MOUNTAIN  SUNNY     65  25  22 N7        29.93F
HOUGHTON       CLOUDY    62  25  24 W13       29.93F
COPPER HARBOR    N/A     50  36  58 E6        29.94F
IRONWOOD       SUNNY     66  34  30 W10       29.90F
$$

ABBREVIATIONS USED IN REMARKS
   TC - TEMPERATURE IN CELSIUS
  WCI - WIND CHILL INDEX
   HX - HEAT INDEX
  VSB - VISIBILITY





USA.gov is the U.S. government's official web portal to all federal, state and local government web resources and services.